www.pogodaiklimat.ru

Погода и климат >> Архив погоды >> Танзания >> Занзибар


ПОГОДА в Занзибаре

  • Прогноз погоды в Занзибаре
  • Монитор погоды в Занзибаре

АРХИВ ПОГОДЫ в Занзибаре

Время (UTC), дата Ветер
(напр.,м/с)
 
Видим.   Явления Облачность Т
(С)
Тd
(С)
f
(%)
Тe
(С)
Тes
(С)
Комфортность P
(гПа)
Po
(гПа)
Тmin
(С)
Tmax
(С)
R
(мм)
R24
(мм)
S
(см)
00 12.06 Ю 10 30 км 3/3 420 м
[Cu med, cong]
+26.0 +23.0 84 +35 +35 очень
душно
1016.2 1014.4
03 12.06 ЮЗ 8 30 км 4/1 360 м
[Cu med, cong Ac trans Ci sp]
+24.4 +23.6 95 +33 +33 очень
душно
1016.5 1014.7
06 12.06 Ю 10 30 км 5/3 360 м
[Cu med, cong Ac trans]
+26.4 +20.8 71 +33 +33 очень
душно
1018.9 1017.1 +24.4
12 12.06 Ю 12 30 км 3/3 660 м
[Cu med, cong]
+30.5 +21.5 59 +39 +39 очень
душно
1015.0 1013.2
15 12.06 Ю 12 30 км 5/3 420 м
[Cu med, cong]
+27.5 +22.4 74 +36 +36 очень
душно
1016.0 1014.2
18 12.06 Ю 5 30 км 1/1 300 м
[Cu med, cong]
+26.0 +23.2 85 +35 +35 очень
душно
1017.4 1015.6 +31.0
21 12.06 ЮВ 5 30 км 1/1 300 м
[Cu med, cong]
+25.8 +23.4 87 +35 +35 очень
душно
1017.3 1015.5
00 13.06 Ю 5 30 км 1/1 300 м
[Cu med, cong]
+25.0 +22.2 84 +32 +32 очень
душно
1015.6 1013.5
03 13.06 Ю 6 30 км 1/1 300 м
[Cu med, cong]
+24.5 +22.3 88 +32 +32 очень
душно
1016.3 1014.5
06 13.06 ЮЗ 8 30 км 8/8 300 м
[Cu med, cong]
+26.5 +23.8 85 +36 +37 очень
душно
1018.8 1017.0
09 13.06 З 8 30 км 6/4 480 м
[Cu med, cong Ac trans]
+29.5 +24.8 76 +42 +44 опасность
перегрева
1018.2 1016.4
12 13.06 ЮВ 6 30 км 9/4 600 м
[Cu med, cong Ac trans]
+28.5 +23.8 76 +39 +41 очень
душно
1015.6 1013.8
15 13.06 ЮВ 8 30 км 8/3 450 м
[Cu med, cong Ac trans]
+26.4 +23.8 86 +36 +36 очень
душно
1015.9 1014.1
18 13.06 Ю 8 30 км 6/3 360 м
[Cu med, cong Ac trans]
+25.8 +23.3 86 +35 +35 очень
душно
1017.4 1015.6 +30.4
21 13.06 ЮВ 8 30 км 3/3 360 м
[Cu med, cong]
+25.4 +23.0 87 +34 +34 очень
душно
1017.2 1015.4
00 14.06 Ю 10 30 км 3/3 360 м
[Cu med, cong]
+25.0 +23.1 89 +33 +33 очень
душно
1015.5 1013.7
03 14.06 Ю 8 30 км 5/3 360 м
[Cu med, cong Ac trans]
+25.6 +23.4 88 +35 +35 очень
душно
1016.4 1014.6
06 14.06 Ю 6 30 км 8/3 360 м
[Cu med, cong Ac trans]
+26.4 +23.1 82 +35 +36 очень
душно
1018.7 1016.9 +25.0
12 14.06 ЮВ 10 30 км 8/3 600 м
[Cb calv]
+29.2 +22.0 65 +38 +38 очень
душно
1015.8 1014.0
15 14.06 ЮВ 10 30 км 8/3 480 м
[Cb calv]
+27.4 +22.3 74 +36 +36 очень
душно
1016.4 1014.6
18 14.06 ЮВ 11 30 км 4/3 400 м
[Cu med, cong Ac trans]
+26.2 +21.0 73 +33 +33 очень
душно
1017.5 1015.7 +30.0
21 14.06 ЮВ 9 30 км 3/3 360 м
[Cu med, cong]
+26.0 +19.7 68 +32 +32 очень
душно
1017.2 1015.4
00 15.06 ЮВ 10 30 км 3/3 330 м
[Cu med, cong]
+25.5 +21.3 78 +32 +32 очень
душно
1015.7 1013.9
03 15.06 ЮЗ 9 30 км 3/3 300 м
[Cu med, cong]
+24.0 +21.9 88 +31 +31 очень
душно
1016.2 1014.4
06 15.06 Ю 9 30 км 3/3 360 м
[Cu med, cong]
+25.5 +21.7 80 +33 +33 очень
душно
1019.1 1017.3 +23.3
09 15.06 Ю 10 30 км 1/1 720 м
[Cu med, cong]
+28.1 +20.3 63 +35 +35 очень
душно
1018.2 1016.4
12 15.06 ЮВ 12 30 км 4/1 720 м
[Cu med, cong Ci fib]
+28.8 +18.4 53 +34 +34 очень
душно
1014.9 1013.1
15 15.06 ЮВ 8 30 км 5/3 660 м
[Cu med, cong Ci fib]
+26.6 +20.1 68 +33 +33 очень
душно
1015.2 1013.4
21 15.06 ЮВ 9 30 км 1/1 480 м
[Cu med, cong]
+24.6 +19.7 74 +30 +30 очень
душно
1017.7 1015.9
00 16.06 В 6 30 км 1/1 420 м
[Cu med, cong]
+24.4 +19.4 74 +30 +30 очень
душно
1016.3 1014.5
03 16.06 Ю 6 30 км 1/1 420 м
[Cu med, cong]
+24.0 +20.2 79 +30 +30 очень
душно
1017.3 1015.5
06 16.06 Ю 6 30 км 1/1 480 м
[Cu med, cong]
+25.0 +20.7 77 +31 +33 очень
душно
1019.3 1017.5 +22.6
09 16.06 Ю 6 30 км 1/1 480 м
[Cu med, cong]
+25.0 +20.7 77 +31 +37 очень
душно
1019.3 1017.5 +22.6
12 16.06 Ю 10 30 км 1/1 840 м
[Cu med, cong]
+29.5 +19.5 55 +35 +36 очень
душно
1016.0 1014.2
15 16.06 ЮВ 12 30 км 4/1 750 м
[Cu med, cong Ac trans]
+28.0 +19.4 60 +34 +34 очень
душно
1016.5 1014.7
18 16.06 ЮВ 7 30 км 3/3 540 м
[Cu med, cong]
+25.8 +20.4 72 +32 +32 очень
душно
1017.8 1016.0 +30.4
21 16.06 Ю 5 30 км 1/1 480 м
[Cu med, cong]
+25.0 +22.4 86 +33 +33 очень
душно
1018.9 1017.1
00 17.06 Ю 8 30 км 6/3 420 м
[Cu med, cong Ac trans]
+25.6 +23.1 86 +34 +34 очень
душно
1017.8 1016.0
09 17.06 Ю 10 30 км 3/3 600 м
[Cu med, cong]
+29.4 +22.8 68 +39 +40 очень
душно
1019.2 1017.4
12 17.06 ЮВ 10 30 км 3/3 660 м
[Cu med, cong]
+30.5 +21.8 60 +39 +39 очень
душно
1016.5 1014.7
15 17.06 ЮВ 10 30 км 3/3 420 м
[Cu med, cong]
+27.6 +22.4 73 +36 +36 очень
душно
1016.6 1014.8
18 17.06 ЮВ 7 30 км 1/1 360 м
[Cu med, cong]
+26.0 +21.8 78 +33 +33 очень
душно
1018.1 1016.3 +31.5
00 18.06 Ю 10 30 км 1/1 360 м
[Cu med, cong]
+24.3 +19.8 76 +30 +30 очень
душно
1017.5 1015.7
03 18.06 ЮЗ 5 30 км 1/1 300 м
[Cu med, cong]
+24.0 +22.3 90 +31 +31 очень
душно
1017.7 1015.9
06 18.06 ЮЗ 9 30 км 1/1 420 м
[Cu med, cong]
+26.0 +22.1 79 +34 +34 очень
душно
1019.0 1017.2 +23.2
09 18.06 Ю 9 30 км 3/3 600 м
[Cu med, cong]
+28.8 +22.1 67 +37 +39 очень
душно
1018.6 1016.8
12 18.06 ЮВ 9 30 км 5/1 60 м
[Cu med, cong Ac trans]
+30.4 +21.8 60 +39 +39 очень
душно
1016.3 1014.5
15 18.06 ЮВ 12 30 км 8/1 540 м
[Cu med, cong]
+27.1 +23.5 81 +37 +37 очень
душно
1016.6 1014.8
18 18.06 ЮВ 5 30 км 3/3 360 м
[Cu med, cong]
+26.0 +23.0 84 +35 +35 очень
душно
1017.4 1015.6 +30.4
21 18.06 штиль 0 30 км 3/3 360 м
[Cu med, cong]
+25.0 +22.8 88 +33 +33 очень
душно
1017.8 1016.0

 

Местоположение метеостанции Занзибар (Танзания): широта -6.22 долгота 39.22 высота над уровнем моря 18 м.

В архиве по умолчанию представлена погода в Занзибаре за последнюю неделю. Архивные данные за месяц целиком и за предыдущие месяцы, начиная с января 2011 года, Вы можете получить, выбрав интересующий диапазон дат из раскрывающегося списка и нажав кнопку "Ввод!".


*Определитесь, кто Вы:
робот инопланетянин человек

Внимание! Время в таблицах - всемирное. Для получения местного времени необходимо прибавить поправку, которая равна 3 ч.

Смотрите также архив погоды в соседних городах и на ближайших метеорологических станциях:

Погода в Дар-эс-Саламе (Танзания) (72 км)
Погода в Морогоро (Танзания) (186 км)
Погода в Момбасе (Кения) (248 км)
Погода в Вои (Кения) (322 км)
Погода в Малинди (Кения) (347 км)
Погода в Додоме (Танзания) (382 км)
Погода в Аэропорту Килиманжаро (Танзания) (392 км)
Погода в Иринге (Танзания) (412 км)
Погода в Мтваре (Танзания) (462 км)
Погода в Макинду (Кения) (464 км)

Пояснения к столбцам:

Ветер - указаны скорость ветра в м/с - средняя за 10 мин, порывы в срок и между сроками (в фигурных скобках) и направление, откуда дует ветер: С - северный, СВ - северо-восточный, В - восточный, ЮВ - юго-восточный, Ю - южный, ЮЗ - юго-западный, З - западный, СЗ - северо-западный.
Видимость - горизонтальная дальность видимости в метрах или километрах. При видимости от 1 до 10 км при отсутствии осадков обычно наблюдается дымка, при ухудшении видимости до 1 км и менее - туман. В сухую погоду видимость может ухудшаться дымом, пылью или мглою.
Явления - указаны атмосферные явления, наблюдавшиеся в срок или в последний час перед сроком; фигурными скобками обозначены явления, наблюдавшиеся между сроками (за 1-3 часа до срока); квадратными скобками обозначены град или гололедные отложения с указанием их диаметра в мм.
Облачность - указаны через наклонную черту общая и нижняя облачность в баллах и высота нижней границы облаков в метрах; квадратными скобками обозначены формы облаков: Ci - перистые, Cs - перисто-слоистые, Cc - перисто-кучевые, Ac - высококучевые, As - высокослоистые, Sc - слоисто-кучевые, Ns - слоисто-дождевые, Cu - кучевые, Cb - кучево-дождевые. Подробнее классификацию облаков см. в Атласе облаков (PDF).
T - Температура воздуха - температура, измеренная на высоте 2 м над землей.
Td - Температура точки росы - температура, при понижении до которой содержащийся в воздухе водяной пар достигнет насыщения.
f - Относительная влажность воздуха - влажноcть воздуха, измеренная на высоте 2 м над землей.
Te - Эффективная температура - температура, которую ощущает одетый по сезону человек в тени. Характеристика душности погоды. При расчете учитывается влияние влажности воздуха и скорости ветра на теплоощущения человека.
Tes - Эффективная температура на солнце - температура, которую ощущает человек, с поправкой на солнечный нагрев. Характеристика знойности погоды. Зависит от высоты солнца над горизонтом, облачности и скорости ветра. Ночью, в пасмурную погоду, а также при ветре 12 м/с и более поправка равна нулю.
P - Атмосферное давление - приведенное к уровню моря атмосферное давление.
Po - Атмосферное давление - измеренное на уровне метеостанции атмосферное давление.
Tmin - Минимальная температура - минимум температуры воздуха на высоте 2 м над землей.
Tmax - Максимальная температура - максимум температуры воздуха на высоте 2 м над землей.
R - Количество осадков - Количество выпавших осадков за период времени, мм. При наведении курсора мыши на число - период времени, за который выпало указанное количество осадков.
R24 - Количество осадков - Количество выпавших осадков за 24 часа, мм.
S - Снежный покров - Высота снежного покрова, см. При наведении курсора мыши на число - состояние снежного покрова и степень покрытия местности в баллах.